Flag for U.S.A. Weather past 2 weeks in Antioch, California, U.S.A.

Now
61 °F

Clear.


Feels Like: 61 °F
Forecast: 58 / 87 °F
Wind: 7 mph from Southwest

Location: Buchanan Field

Current Time: Aug 20, 2014 at 10:11:18 PM

Latest Report: Aug 20, 2014 at 9:53 PM


Visibility: 10 mi

Pressure: 29.86 "Hg

Humidity: 83%

Dew point: 56 °F

Location of AntiochLocation

Historic Weather in Antioch — Graph

°F

Antioch temperature yesterday

Maximum temperature yesterday: 76 °F (at 1:53 PM)
Minimum temperature yesterday: 60 °F (at 12:53 AM)
Average temperature yesterday: 65 °F

Past Weeks' High & Low Weather Summary

 TemperatureHumidityPressure
High91 °F (Aug 8, 3:53 PM)93% (Aug 14, 5:53 AM)29.99 "Hg (Aug 14, 5:53 AM)
Low56 °F (Aug 17, 3:53 AM)9% (Aug 16, 6:53 PM)29.73 "Hg (Aug 18, 5:53 PM)
Average69 °F64%29.88 "Hg
* Reported Aug 5 8:53 PM — Aug 20 8:53 PM, Antioch, Weather by CustomWeather, © 2014

Note: Actual official high and low records may vary slightly from our data, if they occured in-between our weather recording intervals... More about our weather records

Advertising

Antioch weather history for previous 24 hours

 ConditionsComfort  
Time TempWeatherWind HumidityBarometerVisibility
8:53 PM
Aug 20
62 °FSunny.14 mph80%29.86 "Hg10 mi
7:53 PM62 °FScattered clouds.13 mph80%29.84 "Hg10 mi
6:53 PM65 °FSunny.15 mph70%29.84 "Hg10 mi
5:53 PM69 °FSunny.14 mph63%29.84 "Hg10 mi
4:53 PM68 °FSunny.16 mph68%29.85 "Hg10 mi
3:53 PM70 °FScattered clouds.14 mph64%29.85 "Hg10 mi
2:53 PM71 °FScattered clouds.17 mph61%29.87 "Hg10 mi
1:57 PM70 °FSunny.17 mph61%29.92 "Hg10 mi
12:53 PM70 °FPartly sunny.14 mph61%29.88 "Hg10 mi
11:53 AM66 °FMore clouds than sun.14 mph73%29.89 "Hg10 mi
10:53 AM66 °FOvercast.13 mph70%29.89 "Hg10 mi
9:53 AM65 °FOvercast.10 mph73%29.88 "Hg10 mi
8:53 AM65 °FOvercast.9 mph73%29.86 "Hg10 mi
7:53 AM64 °FOvercast.7 mph75%29.85 "Hg10 mi
6:53 AM63 °FOvercast.13 mph78%29.83 "Hg10 mi
5:53 AM64 °FOvercast.8 mph78%29.82 "Hg10 mi
4:53 AM64 °FOvercast.14 mph78%29.81 "Hg10 mi
3:53 AM64 °FOvercast.9 mph78%29.81 "Hg10 mi
2:53 AM64 °FOvercast.10 mph81%29.80 "Hg10 mi
1:53 AM64 °FOvercast.9 mph81%29.80 "Hg10 mi
12:53 AM64 °FOvercast.9 mph81%29.80 "Hg10 mi
11:53 PM
Aug 19
62 °FPassing clouds.8 mph83%29.80 "Hg10 mi
10:53 PM63 °FPassing clouds.12 mph81%29.80 "Hg10 mi
Weather by CustomWeather, © 2014

See weather overviewHow to use our weather pages